Temp
61 60 59 59 59 60 60 61 60 59 58 57 57 58 58 57 55 55 52 50 49 47 46 47 45 46 45 45 45 45 44 43 40 43 44 43 42 44 42 40 41 39 39
61 61 60 61 61 61 61 62 62 59 58 57 56 56 55 54 53 51 49 48 47 46 45 46 45 47 45 45 44 43 43 43 41 39 42 41 41 39 39 39 44 46 40
62 61 61 60 60 60 61 63 61 60 58 55 55 54 53 51 50 49 48 47 46 46 46 45 45 45 43 43 43 42 42 44 41 39 39 40 37 38 37 37 37 39 42
62 62 61 61 61 61 62 62 61 59 57 56 55 53 50 48 48 47 46 45 45 45 45 45 45 44 43 43 42 41 42 40 37 35 38 38 36 37 34 33 35 37 37
61 61 61 62 62 62 60 58 54 55 55 54 50 47 47 47 47 46 46 44 44 43 43 44 44 44 43 41 42 40 38 37 36 35 35 35 35 36 30 32 33 35 36
61 61 63 63 59 58 56 52 50 49 50 48 47 46 46 46 40 41 43 43 43 43 42 42 40 39 38 37 37 37 34 29 28 27 27 27 28 29 29 29 31 32 30
61 61 61 57 54 52 51 50 48 48 48 46 45 45 45 44 39 40 40 44 43 41 39 39 38 37 33 32 34 34 33 34 30 28 25 26 25 27 27 27 28 28 27
59 56 54 53 51 50 49 47 46 46 45 44 45 45 44 42 39 39 38 39 37 35 34 34 31 30 32 31 29 28 29 29 30 30 27 27 27 28 27 29 28 29 32
53 52 52 51 49 48 46 46 46 44 44 43 44 43 42 40 37 37 37 33 32 31 31 30 30 30 33 34 29 28 28 29 34 34 34 35 34 34 34 30 28 28 26
52 52 52 51 49 46 45 45 44 45 44 43 40 41 39 37 36 36 34 30 28 28 30 30 32 31 32 32 28 27 26 27 26 27 27 29 31 30 32 30 28 25 26
51 50 49 48 47 46 44 43 43 41 38 34 33 35 35 35 34 36 35 29 28 28 28 27 27 31 32 32 31 28 27 26 25 24 24 25 26 26 26 27 27 24 23
48 46 46 45 45 44 42 39 37 35 33 31 30 29 30 32 33 34 33 32 31 28 28 27 28 30 31 31 28 29 28 25 21 20 20 21 21 22 23 24 24 25 27
45 44 44 43 42 40 38 36 36 34 31 30 30 27 27 27 27 32 31 30 29 28 28 28 29 29 30 28 28 27 25 22 19 17 18 18 20 21 23 23 24 25 25
43 42 41 37 37 38 38 37 34 33 31 29 27 25 24 24 24 25 26 27 28 28 27 27 26 27 25 25 25 25 23 21 19 18 17 18 19 18 18 20 19 20 20
39 37 36 35 33 31 31 32 31 32 33 31 29 26 23 22 25 27 26 26 25 26 24 24 23 22 21 22 22 21 20 19 18 17 16 16 15 15 16 18 18 18 17
35 34 33 32 31 31 30 29 32 32 32 32 31 28 28 29 29 28 27 28 29 29 23 20 16 15 17 19 18 17 18 17 16 16 14 14 12 12 13 15 16 15 16
33 33 31 31 30 30 29 28 25 29 31 30 30 29 28 27 28 29 29 29 29 26 20 18 14 14 15 18 17 16 14 15 15 13 12 11 10 12 10 11 13 14 13
32 32 31 30 29 28 28 28 27 26 24 24 28 28 28 27 26 26 27 28 21 22 20 18 15 14 15 15 15 14 13 11 9 9 9 7 7 8 7 8 11 11 12
30 28 28 28 28 28 28 27 27 26 26 25 25 25 25 25 23 24 24 20 18 18 18 18 16 16 14 14 12 9 5 4 3 -0 0 1 2 3 4 6 9 10 11
27 27 27 26 26 26 26 25 25 24 24 23 23 21 20 19 16 15 16 14 15 16 16 16 16 14 12 11 8 4 0 -3 -1 -0 0 -4 -4 2 4 5 7 7 11
25 25 25 24 23 23 23 22 22 21 21 20 18 19 19 17 16 16 16 14 14 15 13 13 11 9 9 8 9 2 -1 -6 -0 3 2 3 -0 2 5 7 6 8 11
23 23 22 21 21 20 21 21 20 20 19 18 18 18 18 15 16 15 13 10 9 12 12 10 8 7 7 5 2 -7 -5 -6 -4 -1 1 4 5 5 6 5 4 5 9
21 21 20 20 19 19 18 18 17 17 16 16 16 15 14 12 11 11 9 6 9 7 5 3 -3 -0 -0 -5 -8 -4 -4 2 3 4 4 4 5 6 6 4 4 5 7
19 18 18 17 17 16 15 14 15 14 14 13 12 11 10 7 4 4 2 -1 -4 -9 -11 -12 -8 -4 -2 -6 -7 -4 1 1 5 5 5 6 5 6 6 6 6 5 6
17 16 15 14 13 12 11 10 9 8 8 7 5 2 4 1 1 -8 -13 -13 -9 -13 -9 -8 -8 -5 -4 -5 -4 -2 -2 1 3 5 5 5 4 4 5 6 6 6 7
14 13 12 11 10 9 7 4 1 0 -1 -2 -4 -6 -4 -4 -7 -16 -13 -11 -10 -8 -8 -7 -6 -5 -4 -2 -0 2 0 1 1 3 5 5 3 4 5 6 7 7 8
MSLP
1010.54 1011.51 1012.33 1013.03 1013.83 1014.39 1014.50 1014.39 1014.46 1014.75 1014.95 1015.16 1015.29 1015.67 1015.82 1015.97 1015.78 1016.98 1017.49 1018.03 1018.36 1018.94 1019.46 1020.04 1020.46 1020.91 1021.44 1022.05 1022.40 1022.90 1023.30 1023.59 1023.66 1023.41 1023.37 1023.31 1023.33 1023.20 1022.96 1022.87 1022.87 1022.90 1022.82
1009.90 1010.79 1011.72 1012.55 1013.11 1013.46 1013.30 1013.24 1013.25 1013.67 1013.84 1014.23 1014.31 1015.16 1015.54 1015.79 1016.12 1016.49 1017.12 1017.76 1018.15 1018.81 1019.38 1019.90 1020.45 1020.93 1021.39 1022.03 1022.39 1023.01 1023.20 1023.38 1023.64 1023.50 1023.39 1023.33 1023.32 1023.00 1022.79 1022.52 1022.19 1022.01 1022.06
1009.21 1009.79 1010.54 1011.36 1012.15 1011.30 1011.46 1011.56 1011.94 1012.35 1012.71 1013.25 1013.76 1014.30 1015.23 1015.43 1015.91 1015.95 1016.68 1017.43 1018.03 1018.46 1019.02 1019.57 1020.22 1020.79 1021.63 1022.08 1022.36 1022.81 1022.94 1023.05 1023.33 1023.44 1023.29 1023.16 1023.15 1022.99 1022.77 1022.33 1022.08 1021.67 1021.43
1007.58 1008.21 1008.79 1008.63 1008.30 1008.94 1009.94 1010.29 1011.19 1011.77 1012.04 1012.52 1012.89 1014.02 1014.73 1015.19 1015.82 1015.93 1016.54 1017.51 1018.13 1018.67 1019.22 1019.80 1020.21 1020.74 1021.23 1021.78 1022.27 1022.52 1022.80 1022.88 1023.22 1023.51 1023.50 1023.53 1023.47 1023.25 1023.08 1022.87 1022.21 1021.66 1021.15
1006.23 1006.87 1006.96 1007.26 1008.15 1008.86 1009.38 1009.96 1010.54 1011.28 1011.82 1012.31 1013.09 1013.86 1014.65 1015.14 1015.66 1016.13 1016.63 1017.37 1017.94 1018.69 1019.23 1019.75 1020.36 1020.83 1021.27 1021.71 1022.12 1022.57 1022.77 1023.10 1023.32 1023.47 1023.53 1023.55 1023.32 1023.14 1023.34 1022.89 1022.35 1021.61 1020.77
1005.11 1005.57 1006.15 1007.11 1007.67 1008.17 1009.05 1009.87 1010.46 1011.23 1011.64 1012.25 1012.93 1013.43 1014.39 1015.24 1015.33 1015.71 1016.42 1017.45 1018.08 1018.80 1019.34 1020.12 1020.65 1021.16 1021.72 1022.15 1022.40 1022.64 1022.98 1023.27 1023.53 1023.75 1023.81 1023.74 1023.71 1023.52 1023.37 1023.24 1022.73 1021.97 1020.30
1004.07 1004.96 1005.84 1006.70 1007.41 1008.16 1008.99 1009.74 1010.44 1011.11 1011.63 1012.35 1013.19 1013.75 1014.41 1014.98 1015.62 1016.29 1016.94 1017.77 1018.49 1019.06 1019.74 1020.45 1021.17 1022.00 1022.36 1022.65 1022.99 1023.23 1023.32 1023.39 1023.61 1023.82 1023.84 1023.86 1023.76 1023.66 1023.48 1022.86 1022.43 1021.91 1021.03
1004.20 1005.21 1006.16 1006.94 1007.77 1008.46 1009.15 1009.91 1010.69 1011.39 1011.85 1012.48 1013.23 1013.91 1014.66 1015.69 1016.27 1016.86 1017.51 1018.23 1019.01 1019.71 1020.36 1021.02 1021.53 1022.24 1022.69 1022.93 1023.15 1023.28 1023.49 1023.65 1023.66 1023.67 1023.74 1023.71 1023.64 1023.36 1023.14 1022.59 1022.03 1021.23 1020.24
1004.67 1005.42 1006.23 1006.96 1007.88 1008.64 1009.32 1010.03 1010.66 1011.32 1012.26 1013.03 1013.87 1014.64 1015.36 1016.59 1017.10 1017.60 1018.17 1019.08 1019.97 1020.60 1021.16 1021.53 1021.84 1022.41 1022.80 1023.04 1023.20 1023.40 1023.54 1023.47 1023.35 1023.35 1023.24 1022.94 1022.65 1022.50 1022.29 1022.01 1021.56 1020.98 1019.53
1004.87 1005.64 1006.30 1007.22 1007.96 1008.75 1009.50 1010.32 1011.06 1011.77 1012.58 1013.65 1014.63 1015.36 1016.15 1017.05 1017.63 1018.06 1018.65 1019.56 1020.38 1021.09 1021.56 1022.00 1022.41 1022.84 1022.96 1022.95 1023.20 1023.48 1023.57 1023.65 1023.67 1023.52 1023.31 1022.93 1022.62 1022.43 1022.17 1022.05 1021.57 1020.83 1020.03
1005.13 1006.06 1006.93 1007.67 1008.34 1009.15 1010.04 1010.73 1011.51 1012.42 1013.73 1014.85 1015.89 1016.87 1017.45 1017.98 1018.61 1018.94 1019.35 1019.88 1020.63 1021.38 1021.86 1022.41 1022.69 1022.96 1022.97 1022.90 1023.05 1023.35 1023.68 1023.94 1023.95 1023.80 1023.44 1022.96 1022.60 1022.36 1022.18 1021.97 1021.58 1021.13 1020.23
1005.78 1006.64 1007.43 1008.06 1008.82 1009.70 1010.60 1011.61 1012.60 1013.47 1014.58 1015.79 1016.84 1017.96 1018.62 1019.02 1019.39 1019.89 1020.25 1020.65 1021.19 1021.66 1022.28 1022.75 1022.88 1022.82 1022.87 1023.01 1023.44 1023.65 1023.89 1024.12 1024.10 1023.87 1023.46 1022.98 1022.52 1022.19 1021.81 1021.41 1020.98 1020.18 1019.52
1006.75 1007.58 1008.19 1008.86 1009.62 1010.35 1011.10 1012.25 1013.49 1014.36 1015.33 1016.53 1017.27 1018.23 1019.23 1019.95 1020.33 1020.70 1021.04 1021.45 1021.87 1022.31 1022.69 1022.88 1022.82 1023.00 1023.16 1023.56 1023.72 1023.81 1023.89 1023.96 1023.84 1023.61 1023.26 1022.89 1022.57 1022.11 1021.42 1020.79 1020.11 1019.26 1018.20
1007.62 1008.60 1009.34 1010.01 1010.91 1011.71 1012.28 1013.02 1013.94 1014.93 1015.88 1016.75 1017.70 1018.79 1019.75 1020.42 1020.87 1021.23 1021.60 1021.92 1022.21 1022.51 1022.79 1022.99 1023.19 1023.34 1023.59 1023.81 1023.91 1023.96 1024.01 1023.95 1023.87 1023.59 1023.29 1022.88 1022.50 1021.92 1021.34 1020.72 1019.61 1018.68 1017.56
1008.30 1009.41 1010.29 1011.12 1011.95 1012.98 1013.89 1014.53 1014.90 1015.55 1015.71 1016.43 1017.62 1018.58 1019.59 1020.61 1021.16 1021.45 1021.73 1022.06 1022.38 1022.57 1022.93 1023.13 1023.44 1023.70 1023.91 1024.00 1024.12 1024.15 1024.14 1024.05 1023.91 1023.76 1023.46 1023.03 1022.49 1021.94 1021.24 1020.54 1019.78 1018.76 1017.70
1008.98 1010.15 1011.05 1011.90 1012.88 1013.70 1014.40 1015.55 1016.06 1016.14 1016.50 1017.23 1018.05 1018.74 1019.85 1020.55 1021.15 1021.49 1021.81 1022.05 1022.22 1022.45 1022.90 1023.36 1023.85 1024.11 1024.20 1024.22 1024.25 1024.24 1024.20 1024.14 1024.09 1023.98 1023.72 1023.15 1022.71 1022.13 1021.30 1020.57 1019.85 1018.93 1017.58
1009.14 1010.47 1011.50 1012.38 1013.32 1014.08 1014.97 1015.70 1016.52 1017.69 1017.87 1018.39 1019.00 1019.61 1020.19 1020.84 1021.24 1021.57 1021.80 1022.06 1022.36 1022.81 1023.16 1023.66 1024.07 1024.36 1024.42 1024.32 1024.25 1024.26 1024.34 1024.40 1024.42 1024.24 1023.79 1023.28 1023.01 1022.40 1021.82 1020.91 1019.89 1018.94 1017.86
1010.49 1011.37 1012.28 1013.15 1013.79 1014.70 1015.51 1016.29 1017.03 1017.74 1018.51 1019.23 1019.69 1020.05 1020.59 1021.08 1021.45 1021.71 1021.93 1022.13 1022.68 1022.99 1023.33 1023.80 1024.11 1024.32 1024.40 1024.41 1024.42 1024.49 1024.49 1024.55 1024.51 1024.16 1023.72 1023.37 1023.08 1022.55 1021.85 1021.02 1019.99 1018.75 1017.97
1012.05 1013.00 1013.69 1014.42 1015.20 1015.81 1016.50 1017.07 1017.54 1018.13 1018.77 1019.34 1019.91 1020.42 1020.85 1021.35 1021.83 1022.09 1022.34 1022.56 1022.91 1023.23 1023.54 1023.82 1024.10 1024.30 1024.43 1024.50 1024.55 1024.59 1024.66 1024.64 1024.39 1024.15 1023.77 1023.44 1022.97 1022.61 1021.90 1021.06 1020.18 1018.85 1018.01
1013.76 1014.64 1015.27 1015.92 1016.58 1016.98 1017.57 1018.09 1018.40 1018.82 1019.24 1019.61 1020.13 1020.77 1021.43 1021.84 1022.29 1022.59 1022.81 1023.03 1023.16 1023.37 1023.66 1023.80 1023.98 1024.21 1024.36 1024.41 1024.44 1024.44 1024.41 1024.20 1023.96 1023.59 1023.09 1022.82 1022.50 1022.22 1021.72 1020.60 1019.98 1018.98 1017.63
1015.64 1016.24 1016.71 1017.21 1017.94 1018.33 1018.70 1019.12 1019.50 1019.87 1020.29 1020.66 1021.08 1021.44 1021.87 1022.23 1022.63 1022.87 1023.05 1023.41 1023.52 1023.64 1023.80 1023.98 1024.18 1024.26 1024.33 1024.39 1024.35 1024.31 1024.25 1024.05 1023.71 1023.35 1022.98 1022.55 1022.09 1021.56 1021.23 1020.53 1019.80 1018.70 1017.53
1017.20 1017.68 1018.24 1018.61 1019.15 1019.66 1020.05 1020.32 1020.57 1020.88 1021.25 1021.62 1021.93 1022.21 1022.48 1022.79 1023.01 1023.33 1023.71 1023.97 1023.99 1024.00 1024.12 1024.26 1024.47 1024.40 1024.32 1024.33 1024.22 1024.15 1023.92 1023.51 1022.98 1022.62 1022.36 1022.07 1021.88 1021.05 1020.49 1019.89 1019.36 1018.41 1017.19
1018.69 1019.20 1019.68 1020.09 1020.46 1020.78 1021.20 1021.54 1021.73 1021.97 1022.27 1022.51 1022.73 1023.01 1023.37 1023.68 1023.97 1024.30 1024.60 1024.68 1024.48 1024.55 1024.70 1024.73 1025.02 1024.74 1024.40 1024.29 1024.13 1023.90 1023.62 1023.02 1022.57 1022.29 1021.91 1021.38 1021.07 1020.33 1019.87 1019.33 1018.69 1017.94 1017.00
1020.29 1020.64 1020.95 1021.33 1021.65 1022.02 1022.40 1022.66 1022.86 1023.09 1023.29 1023.51 1023.74 1024.02 1024.23 1024.46 1024.75 1025.07 1025.39 1025.45 1025.38 1025.52 1025.47 1025.44 1025.19 1024.83 1024.39 1024.16 1023.81 1023.38 1022.90 1022.35 1021.84 1021.47 1021.15 1020.74 1020.28 1019.60 1019.11 1018.56 1017.96 1017.27 1016.55
1021.73 1021.97 1022.29 1022.65 1022.98 1023.33 1023.67 1023.97 1024.21 1024.36 1024.47 1024.66 1024.89 1024.94 1024.98 1025.16 1025.40 1025.67 1026.12 1026.08 1025.69 1025.74 1025.26 1024.94 1024.61 1024.14 1023.75 1023.40 1023.11 1022.77 1022.36 1021.89 1021.39 1020.92 1020.62 1020.21 1019.67 1019.02 1018.48 1017.81 1017.11 1016.49 1015.83
1023.07 1023.31 1023.62 1023.89 1024.27 1024.68 1025.08 1025.44 1025.66 1025.75 1025.90 1025.82 1025.79 1025.81 1025.91 1026.01 1026.19 1026.32 1026.58 1026.10 1025.80 1025.44 1025.13 1024.74 1024.29 1023.85 1023.37 1022.78 1022.25 1021.83 1021.66 1021.30 1020.73 1020.21 1019.89 1019.45 1018.90 1018.19 1017.59 1016.89 1016.24 1015.75 1015.04
Wind_Speed
18 14 13 10 8 8 10 12 10 8 8 7 7 6 8 8 7 7 8 8 8 7 6 7 6 6 4 3 3 2 2 2 4 2 3 2 2 5 5 4 6 6 6
15 13 11 10 10 13 16 17 15 12 8 9 7 8 7 9 10 10 9 8 9 9 8 7 7 4 6 4 3 3 3 3 3 6 3 3 5 5 6 6 6 5 6
15 16 15 14 12 21 19 20 12 15 13 11 9 6 7 7 7 8 9 8 8 9 9 9 8 7 4 3 3 3 3 2 3 3 4 2 3 3 5 4 5 7 6
17 20 20 25 27 24 20 18 15 14 13 11 10 9 7 7 6 8 9 8 7 6 6 6 7 6 5 4 3 3 3 2 2 2 4 6 2 3 3 4 8 5 6
19 20 23 22 19 15 13 9 8 9 8 8 9 8 8 7 6 9 9 8 9 8 7 6 5 4 4 4 1 0 2 1 1 2 4 4 4 4 4 3 7 10 10
19 21 19 16 10 11 9 10 9 9 8 9 9 10 10 6 13 13 11 9 9 8 8 6 7 12 12 11 10 8 5 2 0 2 2 3 4 4 2 4 8 10 13
18 15 13 11 10 10 9 9 10 10 10 9 9 10 8 7 12 13 12 7 7 7 7 8 7 6 7 5 6 5 5 4 2 2 3 3 4 3 6 9 8 10 12
11 10 9 9 9 9 9 10 9 8 10 10 9 8 9 6 12 13 13 9 9 8 7 7 8 6 6 5 4 4 3 2 1 2 4 6 6 6 6 9 11 12 13
10 10 11 11 11 11 9 9 9 10 9 8 7 9 10 9 14 14 13 9 9 8 7 6 6 6 7 6 4 4 4 4 6 11 13 15 16 15 14 8 8 9 12
10 9 10 10 11 10 11 9 7 9 9 8 9 9 11 9 13 14 11 6 7 6 5 6 9 5 5 5 3 3 4 4 6 7 7 8 9 8 13 7 8 11 11
10 10 10 9 9 9 10 9 9 10 11 10 11 9 10 9 10 14 12 5 5 5 4 3 3 5 4 4 7 4 3 4 5 5 6 5 5 5 6 6 8 8 10
11 11 10 10 8 9 12 10 10 11 12 9 11 9 7 9 13 14 15 12 8 5 4 3 2 4 5 6 5 6 6 3 2 3 4 5 5 6 7 8 11 11 10
11 11 11 11 9 9 11 11 9 9 9 8 8 8 7 6 6 14 14 12 9 5 4 2 3 4 6 5 5 5 3 2 3 3 5 6 6 8 11 10 10 13 14
12 11 10 10 10 9 7 6 8 8 8 8 8 8 6 5 4 3 4 4 6 4 3 3 3 4 5 2 2 3 3 4 5 5 6 7 7 8 8 8 10 11 12
12 11 10 9 11 11 10 6 6 5 5 9 7 8 8 6 4 6 5 3 2 3 3 2 2 2 2 2 2 3 4 5 5 5 6 7 8 9 8 9 9 11 10
12 9 8 9 8 9 11 11 19 16 20 18 15 10 6 13 12 9 6 5 4 5 2 2 2 0 0 1 1 3 3 4 5 6 6 6 8 9 9 10 9 9 11
13 11 9 10 8 9 8 9 12 14 21 20 19 18 16 13 9 7 6 5 6 5 2 3 2 2 2 1 2 3 4 4 6 5 6 6 7 8 10 10 9 9 11
13 14 9 8 9 8 8 8 7 7 7 6 11 12 14 12 8 6 4 5 3 2 3 3 2 2 0 1 3 4 4 3 4 5 6 5 6 7 9 9 9 10 11
12 10 10 9 8 8 7 6 6 5 5 5 6 6 8 11 8 6 5 2 2 3 2 1 1 1 1 2 2 3 2 3 4 4 4 4 4 5 8 8 10 12 13
12 14 11 8 7 7 6 5 5 5 4 3 4 3 3 3 2 1 1 2 2 2 1 2 1 0 1 3 2 2 3 3 3 4 4 3 4 4 8 8 9 11 10
9 9 11 9 7 7 6 6 5 5 4 4 4 4 5 2 1 1 2 2 1 1 1 1 1 1 2 2 3 2 3 4 4 5 4 6 4 6 7 8 9 10 10
8 8 8 8 7 6 6 5 5 5 5 4 3 3 5 2 2 3 4 3 2 2 2 2 1 2 3 3 3 3 4 5 5 4 5 6 7 7 7 7 8 9 9
9 9 8 7 6 7 6 5 5 4 4 4 4 4 4 3 3 3 3 2 3 2 2 2 2 3 3 4 3 3 4 6 6 6 7 7 8 8 7 8 8 9 9
9 9 8 7 6 6 6 6 6 7 5 4 4 3 3 2 2 3 2 2 2 2 2 2 3 5 5 5 4 4 5 5 6 7 9 8 9 10 8 9 9 10 10
7 7 7 7 6 6 6 6 5 5 4 4 3 2 2 2 2 2 3 2 1 2 4 4 4 6 7 8 8 9 8 10 8 11 8 9 11 13 11 9 10 9 10
8 8 7 6 5 6 6 5 4 4 3 3 3 3 2 3 3 2 2 3 3 4 5 4 6 9 9 8 9 9 9 12 11 13 8 8 9 9 8 10 12 8 10
Wind_Direction
213 208 210 211 217 229 232 228 217 200 194 212 224 221 220 201 185 193 186 175 170 151 145 166 149 143 138 142 124 128 181 181 257 257 229 267 269 268 275 232 239 230 229
207 201 199 188 192 220 218 225 216 203 179 207 212 213 203 187 183 178 174 169 157 160 158 148 142 150 139 143 138 209 212 214 242 274 234 241 236 258 259 275 270 250 229
195 196 192 185 185 233 221 232 214 200 200 178 188 193 207 187 185 159 157 156 159 159 157 158 152 142 151 172 167 222 223 249 239 253 283 249 265 290 290 282 263 265 264
190 191 194 200 201 214 218 219 214 209 195 198 181 179 176 156 159 137 133 137 131 127 125 134 143 158 162 174 206 243 257 270 302 281 291 298 275 313 276 280 293 282 281
188 192 204 208 211 217 214 198 159 182 186 165 144 139 141 156 159 145 140 143 137 140 138 134 135 135 95 90 132 67 19 262 288 292 291 288 283 293 292 290 289 296 288
187 200 206 211 202 193 190 162 139 145 148 140 147 142 147 167 145 136 135 137 137 143 138 112 91 97 93 87 83 81 91 98 236 225 239 275 288 290 322 302 307 298 296
191 195 194 176 169 163 146 145 148 153 144 141 136 138 147 129 128 124 119 129 128 111 104 116 106 93 86 90 71 61 52 27 340 286 281 277 296 290 289 293 285 280 282
165 163 158 155 153 150 151 143 137 138 134 134 134 130 120 118 121 115 101 99 93 89 89 99 106 94 73 72 55 27 19 347 311 258 240 259 253 265 257 275 279 279 280
150 153 151 150 150 149 142 143 135 124 123 122 122 124 117 116 110 109 105 98 99 92 89 87 96 97 70 38 59 19 351 354 350 332 317 308 306 307 305 306 294 294 291
149 153 147 150 148 141 136 133 125 123 120 114 98 97 105 111 120 115 114 112 102 99 85 81 81 82 52 42 73 45 6 357 340 328 320 316 312 298 303 293 297 295 292
125 125 125 129 130 131 123 120 117 108 98 89 83 74 80 91 92 105 108 97 115 112 104 95 72 32 33 48 78 57 15 7 333 313 302 303 303 309 306 302 297 284 286
123 123 122 120 119 122 118 105 102 106 104 101 103 89 75 77 85 88 90 92 99 102 105 94 53 18 50 78 59 24 16 6 295 303 310 310 313 312 306 301 294 279 265
117 121 117 110 111 115 116 114 109 112 121 126 124 116 101 74 73 87 89 88 81 89 100 76 54 71 84 66 28 30 31 338 320 324 323 320 319 311 308 302 298 294 287
117 112 104 99 91 84 86 106 119 129 129 130 128 124 120 111 104 97 95 93 99 100 85 67 81 90 82 54 21 20 8 359 339 329 324 314 312 316 312 315 313 319 310
108 106 101 94 94 86 68 70 92 68 131 145 139 137 137 131 129 125 121 114 129 161 132 106 83 66 33 7 3 355 352 350 341 335 321 315 320 319 316 318 314 312 302
112 108 110 111 109 109 107 90 70 87 93 96 106 116 103 120 116 103 123 148 105 138 101 112 107 102 248 293 332 335 338 336 335 326 314 314 320 315 316 318 311 310 309
120 123 116 114 116 117 112 109 108 79 86 95 102 108 114 120 120 122 116 130 127 111 124 131 145 181 227 324 336 332 323 327 329 316 306 311 315 311 321 315 312 315 312
95 98 98 98 99 96 100 105 112 121 128 125 124 130 127 118 96 76 68 122 123 93 133 151 170 179 224 318 330 321 309 316 311 302 299 293 299 306 313 308 308 314 312
83 79 82 85 84 95 98 94 100 109 115 125 132 128 131 112 98 98 88 116 149 151 151 180 174 155 316 314 296 292 262 274 280 281 276 280 280 303 301 301 300 308 306
73 74 76 75 74 75 74 82 86 89 91 93 116 113 100 85 93 97 109 142 134 142 177 200 146 38 315 305 285 262 260 266 270 273 267 260 269 284 293 298 304 307 305
71 69 76 72 66 65 69 73 71 70 75 77 74 65 93 94 121 168 128 131 105 99 117 71 13 327 310 288 288 283 287 280 282 284 290 291 274 282 286 292 298 296 298
68 70 68 68 67 62 65 64 60 66 71 78 76 84 69 68 57 58 61 47 39 51 39 5 349 330 309 295 280 253 261 262 263 264 278 283 289 290 286 289 292 296 299
66 70 70 68 66 65 65 64 64 63 66 59 58 62 60 54 52 58 56 30 29 9 10 34 312 304 292 281 262 247 263 281 283 282 286 288 285 286 287 285 286 292 296
62 61 65 63 58 63 63 58 58 59 63 63 66 68 70 89 93 71 50 355 5 3 334 316 294 287 293 283 269 262 262 260 270 275 279 285 287 288 286 283 280 281 285
62 64 65 60 57 55 59 54 46 37 41 44 27 20 34 46 65 8 340 345 325 309 296 288 279 281 287 288 289 286 278 287 288 296 289 280 277 280 276 277 278 278 280
63 64 65 64 62 61 61 61 49 40 31 3 2 8 26 23 13 344 305 297 296 294 299 287 290 293 293 290 286 290 298 299 295 291 286 281 276 275 273 276 279 275 279